Regional Weather Roundup
Issued by NWS Wakefield, VA

Home | Current Version | Previous Version | Graphics & Text | Print | Product List | Glossary On
Versions: 1 2 3 4 5 6 7 8 9 10 11 12 13 14 15 16 17 18 19 20 21 22 23 24 25 26 27 28 29 30 31 32 33 34 35 36 37 38 39 40 41 42 43 44 45 46 47 48 49 50
000
ASUS41 KAKQ 150810
RWRAKQ

REGIONAL WEATHER ROUNDUP
NATIONAL WEATHER SERVICE WAKEFIELD VA
400 AM EDT MON SEP 15 2014

Note: "fair" indicates few or no clouds below 12,000 feet with no
significant weather and/or obstructions to visibility. * = Denotes
station may not report precipitation (e.g., rain,snow,etc.),
thunder or fog.

VAZ042-051-052>054-056-150900-
NORTHERN VIRGINIA

CITY           SKY/WX    TMP DP  RH WIND       PRES   REMARKS
WASH NATIONAL  MOCLDY    61  55  81 NE8       30.22S
DULLES         MOCLDY    52  50  93 CALM      30.22S
FORT BELVOIR   CLEAR     51  50  97 CALM      30.22S
QUANTICO       CLEAR     54  51  90 NW8       30.22S
FREDERICKSBRG* CLEAR     54  54 100 CALM      30.21S
STAFFORD*      CLEAR     48  48 100 CALM      30.25S
WARRENTON      FOG       46  46 100 CALM      30.21S VSB 3/4
CULPEPER*      CLEAR    N/A N/A N/A CALM      30.22S FOG
MANASSAS*      PTCLDY    48  48 100 CALM      30.22S VSB 1
LEESBURG*      CLOUDY    52  52 100 CALM      30.23S
WINCHESTER     MOCLDY    48  46  93 CALM      30.23R
FRONT ROYAL*   PTSUNNY   46  46 100 CALM      30.22R
LURAY*         FOG       46  46 100 CALM      30.23S VSB<1/4
$$

VAZ048-049-060>072-079>083-150900-
CENTRAL AND SOUTH CENTRAL VIRGINIA...AND NORTH CENTRAL NORTH CAROLINA

CITY           SKY/WX    TMP DP  RH WIND       PRES   REMARKS
RICHMOND       CLOUDY    65  58  78 CALM      30.21R
CHESTERFIELD*  CLOUDY   N/A N/A N/A CALM      30.22R
PETERSBURG*    CLOUDY    62  58  90 CALM      30.21S
HANOVER        CLEAR     57  56  96 CALM      30.23R
TAPPAHANNOCK*  CLEAR     54  52  92 CALM      30.21S
CHARLOTTSVILLE MOCLDY    55  53  93 NE3       30.20F
ORANGE*        CLOUDY    50  50 100 CALM      30.23S
LOUISA*        CLEAR     50  48  93 CALM      30.20S FOG
FARMVILLE*     CLOUDY    59  59 100 CALM      30.19S
CREWE*         CLOUDY    63  60  90 CALM      30.21S
FORT PICKETT*  CLOUDY    59  57  94 CALM      30.21S
LUNENBURG*     CLOUDY    61  60  96 CALM      30.21R
SOUTH HILL*    CLOUDY    63  63 100 CALM      30.26S
LAWRENCEVILLE* CLOUDY    60  60  98 CALM      30.21S
ROANOKE RAPIDS CLOUDY    59  59 100 CALM      30.21S
RALEIGH        CLOUDY    63  59  87 CALM      30.22S
$$

VAZ088>098-150900-
SOUTHEAST VIRGINIA

CITY           SKY/WX    TMP DP  RH WIND       PRES   REMARKS
NORFOLK        PTCLDY    65  58  78 NW3       30.19F
VIRGINIA BEACH PTCLDY    62  58  86 CALM      30.18F
NORFOLK NAVAL  PTCLDY    66  58  75 NW5       30.21S
WEST POINT*    NOT AVBL
NEWPORT NEWS   CLOUDY    67  61  81 CALM      30.20S
LANGLEY AFB    CLOUDY    64  63  99 NW3       30.19F
FORT EUSTIS    CLOUDY    65  65 100 N1        30.18F
WILLIAMSBURG*  MOCLDY    64  63  94 CALM      30.21S
HR EXEC AP*    CLOUDY    59  55  88 CALM      30.22S
FRANKLIN*        N/A     61  61 100 CALM      30.21R
WAKEFIELD      CLOUDY    62  59  90 CALM      30.20S
$$

VAZ020-022-025-037-045-150900-
WEST CENTRAL AND SOUTHWEST VIRGINIA

CITY           SKY/WX    TMP DP  RH WIND       PRES   REMARKS
STAUNTON*      CLEAR     50  48  92 CALM      30.24S FOG
HOT SPRINGS VA NOT AVBL
LYNCHBURG      CLOUDY    58  57  97 CALM      30.23S
DANVILLE       CLOUDY    63  58  83 CALM      30.22S
SOUTH BOSTON*  NOT AVBL
MARTINSVILLE   PTCLDY    59  59 100 CALM      30.24F FOG
ROANOKE        CLOUDY    60  55  83 S3        30.23F
BLACKSBURG     CLOUDY    61  61 100 CALM      30.25F
DUBLIN*        CLOUDY    58  58 100 CALM      30.25S FOG
MARION*        CLOUDY    59  58  96 CALM      30.27S FOG
HILLSVILLE*    FOG       57  57 100 S3        30.25F VSB 1/4
RICHLANDS*     FOG       60  59  96 SE3       30.24F VSB 1/4
WISE*          FOG       59  59 100 W3        30.25S VSB 1/4
ABINGDON*      PTCLDY    60  59  97 CALM      30.23S
$$

MDZ021>025-VAZ099-100-150900-
SOUTHERN MARYLAND AND THE DELMARVA PENINSULA

CITY           SKY/WX    TMP DP  RH WIND       PRES   REMARKS
PATUXENT RIVER CLOUDY    57  54  89 W3        30.20S
BAY BRIDGE APT   N/A     59  55  88 CALM      30.21S
LEONARDTOWN    CLEAR     54  52  94 CALM      30.22
DOVER          CLEAR     52  52  99 NW2       30.20R
GEORGETOWN     CLEAR     51  48  89 CALM      30.22S
EASTON         MOCLDY    55  55 100 CALM      30.25R
CAMBRIDGE      CLEAR     52  50  93 CALM      30.20S
SALISBURY      PTCLDY    55  50  83 CALM      30.21S
OCEAN CITY     CLEAR     53  50  89 CALM      30.21S
WALLOPS ISLAND PTCLDY    60  53  77 N3        30.21S
ACCOMACK*      CLEAR     54  52  94 NE3       30.20S
$$

NCZ012>017-030>032-150900-
EASTERN NORTH CAROLINA

CITY           SKY/WX    TMP DP  RH WIND       PRES   REMARKS
ELIZABETH CITY MOCLDY    65  59  81 N7        30.19F
AHOSKIE*       CLOUDY    60  58  95 CALM      30.21S
EDENTON*       CLEAR     61  60  96 CALM      30.19F
CURRITUCK*     MOCLDY    63  57  80 NW3       30.20S
KILL DEVIL HLS CLOUDY    69  58  66 CALM      30.17S
MANTEO         CLOUDY    69  58  68 N7        30.18S
CAPE HATTERAS  CLOUDY    68  59  73 VRB6      30.16F
TARBORO*       CLOUDY    63  60  89 CALM      30.21S
GOLDSBORO      CLOUDY    64  64  98 CALM      30.18S
WASHINGTON     MOCLDY    63  61  95 CALM      30.20S
GREENVILLE     CLOUDY    63  63 100 CALM      30.21S
NEW BERN       CLOUDY    68  62  81 NE5       30.19F
WILMINGTON     CLOUDY    70  66  87 N6        30.17S
$$

VAZ048-150900-
ELSEWHERE

CITY           SKY/WX    TMP DP  RH WIND       PRES   REMARKS
HARRISBURG PA  MOCLDY    53  48  83 CALM      30.22S
BALTIMORE      MOCLDY    54  50  86 CALM      30.22S
ANNAPOLIS      CLOUDY    58  54  86 W3        30.21S
ANDREWS AFB    MOCLDY    51  50  97 NE1       30.21S
WILMINGTON DE  CLEAR     51  48  89 NW3       30.22S
PHILADELPHIA   CLEAR     54  47  77 N7        30.21S
WILDWOOD NJ*   CLEAR     52  46  82 CALM      30.21S
ATLANTIC CITY  CLEAR     50  48  93 CALM      30.20S
HENDERSON NC   CLOUDY    62  59  91 CALM      30.21S
GREENSBORO     CLOUDY    64  59  83 CALM      30.21S
ROCKY MOUNT    CLOUDY    64  59  83 N5        30.20F
FAYETTEVILLE   CLOUDY    67  64  90 NE5       30.18F
CHARLOTTE      CLOUDY    66  62  87 CALM      30.22S
$$

VAZ100-150900-
MARINE

STATION/POSITION TIME  TEMP    WIND        PRES    WAVE   SWELL
                       AIR SEA DIR/SP/G            HT/PER HT/PER
                 (UTC) (F)     (DEG/KT/KT) (MB)    (FT/S) (FT/S)
44066 TX TWR #4  0800   64 74  330/  6/ 10 1021.8F   2/ 7   2/ 7
CAPE MAY NJ      0800   64 75  320/  2/  8 1022.2R
LEWES DE         0800   58 72  260/  4/  5 1022.6S
15NM E FENWICK I 0800   66 72              1022.3F   2/ 6
OCEAN-CITY-INLET 0800   59 71  320/  4/  5 1022.3F
WACHAPREAGUE VA  0800   60 73  330/  1/  3 1022.6S
THOMAS POINT MD  0800   62 74  310/  7/  8 1024.1R
GOOSES REEF MD   0800   66     350/  4/  6 1023.3S
COVE POINT MD    0800   65     310/  4/  5 1022.7S
SOLOMONS ISLAND  0800      76                N/A
BISHOPS HEAD MD  0800   63 71   40/  4/  5 1022.2S
PINEY POINT MD   0800           CALM  /  2   N/A
POTOMAC MD       0700   68     280/  2/  4 1021.9F
CAMBRIDGE MD     0800   58 76  180/  1/  1 1022.6R
LEWISETTA VA     0800   63 73  250/  4/  4 1022.3S
RAPPAHANNOCK LGT 0800           80/  5/  6 1022.9R
STINGRAY PT      0800   67     300/  4/  6   N/A
YORK RVR RNG VA  0800   66     350/  6/  7 1021.9F
YORKTOWN VA      0800   66 77  340/  4/  5 1022.1S
JAMESTOWN VA     0800   65     330/  4/  6   N/A
DOMINION TERM VA 0800   67      CALM  /  2 1022.4S
KIPTOPEKE VA     0800      78   50/  4/  5   N/A
CHES BAY BRIDGE  0800   68 76  310/  7/ 10 1021.8F
CAPE HENRY VA    0800   68     350/  5/  6 1021.0S
CHESAPEAKE LGHT  0700   68     340/ 10/ 12 1022.9F
WILLOUBY STN VA  0800   66     350/  6/  7 1020.9F
S CRANEY ISL VA  0800          250/  3/  5 1022.0F
CAPE HENRY BUOY  0800      76                N/A     2/ 7
1ST LANDING BUOY 0800   69     320/  8/ 10 1021.9R
CAPE CHARLES BUO 0800      75                N/A     2/ 7   2/ 7
OFFSHORE WE BUOY 0800      74                N/A     3/ 7   3/ 7
64NM E OF VA BCH 0800   71 79   10/ 12/ 16 1021.2S   3/ 7   2/ 7
DUCK PIER NC     0800   70 76  350/ 11/ 16 1021.2S
44100 DUCK FRF   0800      75                N/A     3/ 7
44056 DUCK FRF   0800                        N/A     3/ 7
OREGON INLET NC  0800   69 76   10/  8/ 12 1021.6R
HATTERAS NC      0800   72 78   10/ 13/ 15 1021.7S
DIAMOND SHLS NC  0800   72     350/ 14/ 17 1020.7F   3/ 8   2/ 8
CAPE LOOKOUT NC  0700   71     340/ 11/ 12 1021.5F
$$



USA.gov is the U.S. government's official web portal to all federal, state and local government web resources and services.